Theta_e
340 346 352 350 351 352 353 353 354 354 353 353 351 350 349 350 350 350 348 350 348 348 346 344 345 346 346 345 347 347 348 346 345 346 348 350 350 349 348 348 349 347 351
342 345 352 351 351 352 352 352 353 353 352 352 351 350 349 350 351 349 348 349 349 347 344 344 346 347 347 346 344 344 345 345 344 344 344 345 347 348 347 350 348 347 350
340 344 347 352 352 350 350 351 352 353 353 353 350 350 351 350 350 349 348 348 348 345 345 344 346 347 346 345 345 344 343 342 341 344 344 338 343 348 347 347 349 348 348
342 342 345 352 352 350 350 350 350 349 350 350 350 350 350 350 350 349 347 347 348 346 345 345 345 345 343 343 342 341 340 338 340 341 338 340 339 348 347 346 346 346 346
341 344 347 350 350 350 350 349 348 349 349 349 349 350 348 347 347 347 345 347 346 349 348 345 344 344 344 342 340 339 337 336 336 334 331 335 340 344 348 347 345 345 344
342 343 346 348 349 349 348 348 348 347 347 348 349 348 348 348 348 347 347 348 347 346 347 344 343 343 344 343 340 338 337 340 338 328 328 339 338 342 346 347 345 344 344
339 340 343 347 347 347 347 347 347 347 346 346 345 346 345 345 345 346 346 347 347 346 346 344 342 342 342 343 340 338 336 337 332 326 327 336 338 343 342 345 345 345 343
331 333 335 340 340 339 341 344 345 344 344 345 345 344 344 346 345 345 345 346 346 344 345 344 343 342 341 342 341 338 337 334 330 325 326 332 341 342 341 343 344 344 343
326 327 327 330 334 333 333 337 340 343 345 344 344 345 344 346 346 345 345 345 344 344 345 345 344 344 342 342 343 341 337 334 329 327 327 332 342 340 341 341 342 344 343
318 319 324 326 327 325 325 335 337 339 342 341 340 339 340 341 341 343 342 343 345 345 345 345 345 345 345 343 343 341 336 333 326 325 325 333 342 340 340 341 342 342 343
315 314 318 321 324 325 327 330 336 338 336 334 334 337 337 338 338 338 335 338 340 342 342 343 344 344 342 340 340 339 335 328 325 322 328 338 339 338 339 339 341 342 342
312 313 316 317 316 319 322 323 327 334 335 333 332 336 336 335 336 338 335 335 337 339 339 340 341 342 339 334 334 337 331 328 325 322 327 338 338 336 337 339 341 342 342
313 312 314 315 315 314 315 315 316 319 320 320 320 322 331 333 332 332 334 334 333 332 334 335 336 336 334 333 334 332 331 328 326 324 328 337 338 337 337 338 341 342 342
311 311 313 314 313 312 311 310 310 311 313 313 314 316 316 319 320 320 322 323 323 323 320 321 325 333 333 334 334 333 334 333 327 326 327 334 338 337 337 338 338 340 341
310 311 312 311 310 311 311 310 309 309 309 310 311 312 314 315 315 316 317 319 319 320 319 318 318 319 328 331 333 332 332 333 331 328 325 328 332 335 336 337 339 340 340
311 310 310 310 310 311 310 310 309 309 309 310 310 310 312 312 311 312 314 316 318 321 322 321 318 317 318 325 328 331 332 333 332 330 326 325 328 330 331 335 337 340 341
309 309 309 310 310 309 309 309 310 310 310 309 309 311 311 312 311 311 311 311 314 318 320 321 320 319 318 319 322 325 326 327 327 327 326 325 325 325 327 329 334 338 340
306 306 307 311 309 309 308 309 309 310 309 309 310 310 312 312 311 310 310 310 311 313 314 316 317 318 317 317 316 318 321 324 325 325 327 325 322 321 324 330 330 333 338
305 306 307 308 308 308 308 308 309 309 309 309 309 310 310 312 312 310 310 310 311 310 310 315 313 314 314 315 316 315 315 317 318 320 322 325 326 323 320 324 328 330 333
305 305 306 307 307 308 308 308 308 308 308 309 309 309 310 311 312 310 311 310 311 309 309 313 311 314 313 312 315 314 313 315 316 316 316 320 321 323 320 318 321 326 329
304 304 305 305 306 306 305 304 304 303 306 307 309 310 310 310 311 310 310 310 310 309 308 309 309 310 309 312 312 309 309 313 314 314 315 316 318 320 322 319 318 322 328
304 304 304 305 305 305 305 305 305 305 306 307 308 308 309 308 309 309 308 309 310 309 309 308 308 308 309 312 310 306 301 305 310 313 313 314 315 318 319 321 320 320 324
303 303 304 304 305 305 306 306 306 306 305 305 304 305 306 307 307 307 307 307 307 308 307 307 307 307 306 309 311 308 301 299 305 310 311 313 314 315 318 320 321 322 320
303 303 304 305 305 305 305 304 303 301 300 302 302 304 305 306 306 307 307 306 305 306 305 307 311 309 308 306 309 310 312 310 302 300 308 311 312 312 312 315 319 317 319
304 303 303 304 305 305 304 303 301 300 301 302 303 303 304 304 306 306 306 305 305 305 305 305 305 306 308 309 308 309 309 308 310 305 302 302 308 310 311 312 316 317 319
303 303 302 303 303 304 302 301 300 299 300 300 301 301 302 302 303 305 306 305 306 305 305 305 306 307 306 305 308 310 306 304 305 305 301 302 303 305 310 312 311 312 316
Wind_Speed
9 10 11 10 9 10 10 11 11 10 10 11 11 11 11 12 12 10 9 10 9 9 9 9 10 10 11 11 12 12 12 11 10 9 9 9 9 9 9 7 10 10 15
14 12 10 10 10 10 11 12 11 10 10 9 10 10 12 11 10 9 8 8 9 9 9 10 9 10 11 11 10 11 10 9 6 5 6 9 9 8 9 10 11 12 15
14 12 11 10 10 10 10 11 10 10 11 10 11 10 10 9 9 8 7 7 8 9 9 9 10 11 10 10 10 10 8 5 3 1 2 2 6 8 10 11 10 14 12
11 12 11 11 11 10 9 10 9 9 10 9 10 10 9 8 8 7 6 5 7 8 9 9 9 10 9 9 8 8 6 3 3 5 4 4 7 10 9 10 11 11 12
8 11 12 10 10 10 9 8 7 8 8 8 7 7 7 7 7 5 3 4 5 7 8 8 7 8 8 7 7 6 4 4 6 7 5 6 2 8 11 10 10 10 11
10 11 11 9 8 8 7 5 5 5 6 6 7 6 5 5 6 5 4 5 6 6 7 7 6 5 5 5 5 5 3 6 9 7 4 9 6 4 9 11 12 9 10
10 11 11 14 13 11 9 6 5 5 4 4 4 5 5 5 5 4 4 4 5 5 6 7 6 5 4 4 3 3 3 6 6 6 6 6 6 6 3 10 11 10 9
9 7 9 14 15 15 14 12 8 4 4 4 3 3 4 4 5 4 3 3 4 4 5 5 5 4 4 4 3 2 2 4 7 6 5 5 8 8 4 7 9 10 9
7 7 6 6 11 14 12 11 9 8 4 5 3 1 1 1 3 4 4 3 3 3 4 6 6 6 5 5 4 3 1 6 5 4 4 4 7 6 5 2 6 8 10
6 6 6 5 6 7 5 8 8 6 10 11 8 7 6 1 2 4 6 4 3 2 3 4 6 6 6 6 5 4 3 6 6 4 3 4 9 6 3 2 4 7 6
6 5 5 6 5 5 3 2 5 5 6 5 6 3 3 5 6 3 3 4 3 2 1 3 4 6 8 7 7 6 5 3 6 3 3 8 8 6 2 2 4 6 7
5 5 5 6 5 5 4 3 4 5 5 3 4 4 3 3 4 5 3 2 1 2 4 4 4 6 5 4 4 6 3 5 5 4 4 9 7 5 2 3 6 7 6
5 5 6 4 4 5 4 0 1 3 4 4 7 4 4 4 3 2 3 2 3 3 3 4 2 2 4 4 3 4 5 6 3 1 4 9 8 6 5 4 7 9 9
6 5 6 5 6 4 3 4 4 4 4 4 4 6 5 4 5 4 3 1 1 2 3 2 2 2 2 3 4 5 5 4 2 2 1 6 7 7 6 7 5 8 9
6 5 6 6 6 6 7 5 5 5 4 4 5 6 5 4 4 4 4 4 4 2 1 2 3 3 1 1 3 3 4 4 4 2 1 5 5 6 7 7 9 11 12
7 6 7 7 6 7 6 7 5 5 4 4 4 5 6 5 4 3 4 4 3 4 4 4 2 3 3 1 2 4 3 4 4 3 2 1 6 5 7 10 10 13 13
6 6 7 6 6 6 5 5 4 4 4 4 4 5 6 5 5 5 4 5 4 4 4 3 4 2 2 2 2 3 2 3 4 4 3 3 3 5 8 12 12 13 14
8 7 6 6 6 6 5 4 4 4 4 3 3 4 6 6 5 4 2 3 3 4 3 3 4 4 4 3 3 3 4 4 5 5 4 4 4 4 5 11 13 15 15
8 7 7 7 6 5 5 4 4 5 3 3 4 4 6 5 5 4 4 3 4 3 3 2 2 3 4 5 5 3 2 1 3 3 5 5 5 5 4 7 12 14 14
10 8 6 5 5 4 3 3 3 4 4 4 4 4 6 5 6 5 4 5 4 3 4 0 2 0 3 4 6 6 4 5 4 4 5 5 5 6 6 6 4 4 11
8 9 7 7 5 4 4 3 3 3 3 3 4 6 6 6 6 6 4 5 5 4 4 5 1 2 2 3 4 4 5 8 7 5 5 4 5 6 5 4 4 3 3
8 7 8 7 7 5 3 2 2 1 1 1 3 4 5 6 6 6 6 5 6 4 6 5 5 2 3 2 2 2 4 5 4 6 4 5 6 4 5 3 3 5 4
9 8 7 7 7 5 4 3 3 3 3 4 4 3 4 5 5 5 6 5 6 5 4 4 4 5 3 3 4 3 3 3 3 1 4 4 5 3 4 4 4 5 5
8 8 8 7 7 6 6 4 4 3 2 2 2 2 4 4 4 5 5 5 5 4 5 4 5 4 4 4 3 4 6 5 2 4 2 3 4 4 4 3 4 5 5
8 8 8 7 7 6 6 5 4 4 3 2 3 5 5 5 4 4 4 5 5 3 5 5 6 6 5 5 4 3 3 3 5 4 7 5 2 4 4 4 5 4 5
7 7 7 8 6 5 5 6 6 5 4 4 4 4 4 4 4 4 5 5 5 5 6 6 7 8 8 5 6 6 4 3 3 3 3 4 5 4 4 4 4 4 3
Wind_Direction
120 125 127 124 112 128 107 109 109 120 123 125 122 124 126 131 124 117 106 97 102 100 89 87 89 92 89 86 78 76 71 69 71 73 69 63 74 82 77 88 105 94 93
129 128 131 126 113 125 116 114 108 110 117 123 124 126 126 132 124 121 112 111 117 104 98 93 88 98 92 86 83 82 79 73 67 78 99 93 75 78 52 69 86 93 96
114 121 137 129 119 115 114 116 111 116 116 119 123 122 121 126 131 125 126 124 122 110 106 101 94 89 90 88 85 80 77 66 43 42 249 193 110 90 90 93 90 91 93
125 145 132 135 125 116 112 115 115 116 111 115 112 115 121 122 120 117 121 142 117 121 119 112 104 101 96 90 83 76 68 48 344 317 279 213 134 124 116 118 106 107 107
83 84 117 129 126 117 115 115 114 114 109 105 103 113 128 134 129 120 137 167 143 127 120 118 117 118 112 98 86 75 41 339 325 324 52 60 68 144 141 132 125 123 116
78 79 89 100 105 110 115 111 96 101 112 114 117 118 113 110 131 109 94 115 130 134 126 128 129 129 130 116 92 72 32 318 326 305 113 72 67 110 166 149 143 134 127
65 76 70 78 74 69 67 75 90 112 116 133 139 134 137 130 116 108 97 113 138 149 150 151 154 154 153 148 117 59 22 328 307 318 52 79 56 58 112 161 146 142 141
68 64 88 82 77 65 57 51 53 78 111 117 124 142 161 144 124 133 134 122 134 152 171 177 175 179 179 185 166 115 350 325 324 322 85 95 75 55 73 159 165 157 154
86 80 50 81 100 79 65 63 55 52 115 123 96 65 322 169 163 155 146 144 171 178 169 183 196 200 201 212 206 173 266 311 316 305 54 101 86 77 65 141 191 182 172
73 86 98 71 53 68 71 69 69 75 88 75 56 27 354 230 224 151 141 114 129 180 191 194 193 208 210 218 212 196 246 291 282 292 106 136 116 80 74 90 151 193 193
97 85 96 116 95 101 76 58 85 112 94 105 51 6 34 347 300 296 41 99 80 59 293 246 223 210 216 221 220 209 221 258 271 260 96 136 124 111 24 229 218 200 192
102 110 83 73 127 158 141 174 220 157 129 149 216 202 103 125 231 184 157 181 171 223 249 245 246 236 216 214 209 209 216 252 261 237 142 150 145 155 212 247 238 221 192
89 73 81 69 70 67 66 34 51 57 67 58 39 26 173 168 182 186 147 176 200 228 239 210 231 246 224 231 189 183 213 240 260 302 148 159 157 179 218 256 245 216 195
89 81 87 74 66 76 50 46 56 57 61 65 60 25 20 29 19 14 32 63 102 57 338 23 332 197 251 278 245 233 250 275 273 318 352 179 177 185 216 241 233 219 203
102 98 86 80 67 55 50 40 43 46 51 55 46 30 39 30 24 12 3 1 9 360 338 359 341 352 262 57 360 340 275 273 251 243 158 188 218 219 223 244 249 224 220
122 111 89 76 75 72 61 54 40 26 32 55 54 38 23 29 23 20 7 352 354 353 358 1 353 356 337 72 351 313 321 328 308 327 323 298 231 236 239 242 247 250 232
131 116 101 93 83 79 68 73 65 13 34 39 39 55 35 29 15 8 4 350 336 358 340 304 320 295 264 287 219 240 262 286 288 282 298 295 272 260 254 249 245 249 249
130 129 113 98 87 82 75 63 75 39 30 33 27 43 51 8 19 357 331 325 352 343 320 357 2 346 342 329 286 258 235 214 230 242 228 230 229 241 255 244 238 239 245
124 121 116 102 93 79 62 78 71 61 37 31 43 43 18 12 20 10 347 334 340 318 311 83 356 7 341 336 308 273 284 267 274 299 268 241 227 221 223 248 238 230 232
134 126 110 92 88 92 53 67 65 55 37 32 37 31 18 16 16 8 340 341 347 335 330 40 154 236 310 314 315 317 314 292 262 254 267 294 257 247 226 227 251 244 238
116 124 131 111 72 64 63 43 45 37 40 31 28 12 25 11 8 354 337 347 343 353 340 334 238 117 290 302 308 297 274 257 212 221 223 257 296 267 239 225 232 235 241
141 137 114 102 87 63 59 56 78 40 353 127 36 15 35 2 7 352 352 341 340 343 340 334 333 309 234 245 250 295 301 326 257 223 200 221 254 286 299 219 249 258 240
141 136 122 112 100 81 67 46 15 32 6 34 7 4 1 354 3 360 352 350 341 341 321 314 323 320 305 296 255 214 312 267 328 344 223 207 237 247 281 303 305 280 251
142 128 118 121 114 96 68 59 46 50 42 6 342 352 332 1 4 12 359 354 346 333 326 312 312 319 307 292 296 264 255 251 249 309 340 237 213 233 257 264 261 290 308
117 124 123 115 101 98 88 76 62 31 20 352 345 354 3 350 17 16 15 353 329 327 318 317 317 306 308 297 274 271 285 275 253 238 273 280 312 256 237 232 233 230 261
115 118 122 109 101 89 77 65 62 44 8 9 347 0 10 344 338 2 355 0 348 355 353 339 334 324 298 297 303 297 245 227 279 271 271 271 258 276 241 221 208 224 229